www.pogodaiklimat.ru

Погода и климат >> Архив погоды >> Южная Африка >> Виулсдриф


ПОГОДА в Виулсдрифе

  • Прогноз погоды в Виулсдрифе
  • Монитор погоды в Виулсдрифе

АРХИВ ПОГОДЫ в Виулсдрифе

Время (UTC), дата Ветер
(напр.,м/с)
 
Видим.   Явления Облачность Т
(С)
Тd
(С)
f
(%)
Тe
(С)
Тes
(С)
Комфортность P
(гПа)
Po
(гПа)
Тmin
(С)
Tmax
(С)
R
(мм)
R24
(мм)
S
(см)
18 17.03 ЮЗ 7 н/о н/о +26.7 +7.9 30 +27 +27 жарко 988.4 +26.7 +33.6
03 18.03 СЗ 1 н/о н/о +19.0 +10.9 59 +21 +21 комфорт 991.6 +19.0 +33.6
06 18.03 С 1 н/о н/о +20.3 +10.8 54 +23 +23 комфорт 991.9 +18.0
09 18.03 СЗ 2 н/о н/о +27.1 +8.3 31 +27 +27 жарко 990.7 +18.0 +27.6
12 18.03 В 2 н/о н/о +33.5 +7.1 19 +32 +32 жарко 988.7 +18.0 +33.5
15 18.03 СЗ 2 н/о н/о +36.5 +0.4 10 +33 +33 жарко 986.7 +33.4 +37.3
03 19.03 Ю 1 н/о н/о +21.0 +8.7 45 +24 +24 комфорт 990.2 +20.2 +37.3
06 19.03 СЗ 2 н/о н/о +21.7 +8.4 42 +23 +23 комфорт 991.5 +18.8
09 19.03 СВ 2 н/о н/о +29.1 +6.8 25 +28 +28 жарко 991.3 +18.8 +29.6
12 19.03 С 2 н/о н/о +35.3 +4.2 14 +32 +32 жарко 988.8 +18.8 +36.2
15 19.03 Ю 7 н/о н/о +35.0 +2.9 13 +32 +32 жарко 987.9 +35.0 +38.6
18 19.03 Ю 7 н/о н/о +28.3 +11.2 35 +29 +29 жарко 989.4 +28.3 +38.6
03 20.03 штиль 0 н/о н/о +20.3 +12.1 59 +22 +22 комфорт 992.4 +20.3 +38.6
06 20.03 С 1 н/о н/о +22.9 +12.3 51 +26 +26 жарко 994.3 +19.5
09 20.03 СЗ 1 н/о н/о +28.9 +11.3 34 +30 +30 жарко 994.1 +19.5 +29.2
12 20.03 ЮЗ 2 н/о н/о +33.3 +7.7 21 +32 +32 жарко 991.5 +19.5 +34.4
15 20.03 Ю 5 н/о н/о +34.4 +7.1 19 +33 +33 жарко 989.6 +33.4 +36.5
18 20.03 ЮЗ 5 н/о н/о +28.2 +9.7 31 +28 +28 жарко 990.7 +28.2 +36.5
21 20.03 Ю 3 н/о н/о +26.3 +9.0 34 +27 +27 жарко 991.9 +26.2 +36.5
03 21.03 СЗ 2 н/о н/о +21.4 +10.9 51 +23 +23 комфорт 992.3 +21.4 +36.5
06 21.03 Ю 4 н/о н/о +23.2 +9.4 41 +25 +25 комфорт 994.6 +20.8
09 21.03 Ю 2 н/о н/о +28.9 +7.2 25 +28 +28 жарко 994.8 +20.8 +29.1
12 21.03 СВ 2 н/о н/о +33.8 -3.0 9 +30 +30 жарко 991.9 +20.8 +34.9
15 21.03 ЮЗ 1 н/о н/о +37.6 -5.5 6 +33 +33 жарко 989.1 +33.9 +37.8
18 21.03 Ю 5 н/о н/о +31.8 +4.1 17 +29 +29 жарко 990.6 +31.8 +37.8
21 21.03 Ю 2 н/о н/о +28.9 +4.7 21 +27 +27 жарко 991.6 +28.1 +37.8
00 22.03 Ю 5 н/о н/о +27.6 +2.2 19 +26 +26 жарко 991.3 +27.6 +37.8
03 22.03 Ю 3 н/о н/о +26.3 +0.3 18 +24 +24 комфорт 991.0 +26.2 +37.8
06 22.03 Ю 3 н/о н/о +26.1 +1.6 20 +25 +25 комфорт 992.2 +24.5
09 22.03 Ю 1 н/о н/о +31.8 +1.4 14 +29 +29 жарко 992.5 +24.5 +32.1
12 22.03 ЮЗ 2 н/о н/о +37.3 +2.4 11 +34 +34 очень
жарко
989.1 +24.5 +38.5
15 22.03 ЮВ 1 н/о н/о +40.1 -1.6 7 +36 +36 очень
жарко
986.0 +38.3 +40.2
18 22.03 ЮЗ 5 н/о н/о +35.5 +2.2 12 +32 +32 жарко 986.4 +35.5 +40.2
21 22.03 штиль 0 н/о н/о +30.4 +5.2 20 +29 +29 жарко 987.9 +30.4 +40.2
00 23.03 СЗ 2 н/о н/о +27.0 +6.1 26 +26 +26 жарко 988.4 +27.0 +40.2
03 23.03 СЗ 2 н/о н/о +24.6 +3.5 25 +24 +24 комфорт 987.5 +24.4 +40.2
06 23.03 СЗ 1 н/о н/о +26.7 +2.8 21 +25 +25 комфорт 989.1 +23.0
09 23.03 СВ 1 н/о н/о +34.1 +2.2 13 +31 +31 жарко 988.6 +23.0 +34.5
12 23.03 С 2 н/о н/о +40.3 +0.3 8 +36 +36 очень
жарко
985.8 +23.0 +41.1
18 23.03 ЮЗ 4 н/о н/о +30.6 +6.1 21 +29 +29 жарко 986.8 +30.6 +42.6
21 23.03 Ю 2 н/о н/о +27.3 +2.6 20 +26 +26 жарко 989.1 +27.3 +42.6
00 24.03 ЮЗ 4 н/о н/о +23.9 +7.3 34 +24 +24 комфорт 990.1 +23.7 +42.6
03 24.03 штиль 0 н/о н/о +20.6 +9.3 48 +22 +22 комфорт 989.8 +20.6 +42.6
06 24.03 ЮВ 1 н/о н/о +21.8 +10.4 48 +24 +24 комфорт 992.6 +19.6
09 24.03 СВ 1 н/о н/о +28.0 +9.1 31 +28 +28 жарко 992.7 +19.6 +28.0
12 24.03 Ю 4 н/о н/о +30.8 +3.3 17 +28 +28 жарко 991.4 +19.6 +31.0
15 24.03 Ю 6 н/о н/о +29.5 +7.1 24 +28 +28 жарко 991.0 +29.0 +31.5

 

Местоположение метеостанции Виулсдриф (Южная Африка): широта -28.70 долгота 17.60 высота над уровнем моря 168 м.

В архиве по умолчанию представлена погода в Виулсдрифе за последнюю неделю. Архивные данные за месяц целиком и за предыдущие месяцы, начиная с января 2011 года, Вы можете получить, выбрав интересующий диапазон дат из раскрывающегося списка и нажав кнопку "Ввод!".


*Определитесь, кто Вы:
робот инопланетянин человек

Внимание! Время в таблицах - всемирное. Для получения местного времени необходимо прибавить поправку, которая равна 2 ч.

Смотрите также архив погоды в соседних городах и на ближайших метеорологических станциях:

Погода в Порт Ноллоз (Южная Африка) (92 км)
Погода в Александер-Бее (Южная Африка) (106 км)
Погода в Спрингбоке (Южная Африка) (111 км)
Погода в Коингнаасе (Южная Африка) (170 км)
Погода в Пофаддере (Южная Африка) (180 км)
Погода в Портервилле (Южная Африка) (198 км)
Погода в Китмансхупе (Намибия) (247 км)
Погода на Ауграбисе (Южная Африка) (268 км)
Погода в Ниеувоудтвилле (Южная Африка) (327 км)
Погода в Людерице (Намибия) (337 км)

Пояснения к столбцам:

Ветер - указаны скорость ветра в м/с - средняя за 10 мин, порывы в срок и между сроками (в фигурных скобках) и направление, откуда дует ветер: С - северный, СВ - северо-восточный, В - восточный, ЮВ - юго-восточный, Ю - южный, ЮЗ - юго-западный, З - западный, СЗ - северо-западный.
Видимость - горизонтальная дальность видимости в метрах или километрах. При видимости от 1 до 10 км при отсутствии осадков обычно наблюдается дымка, при ухудшении видимости до 1 км и менее - туман. В сухую погоду видимость может ухудшаться дымом, пылью или мглою.
Явления - указаны атмосферные явления, наблюдавшиеся в срок или в последний час перед сроком; фигурными скобками обозначены явления, наблюдавшиеся между сроками (за 1-3 часа до срока); квадратными скобками обозначены град или гололедные отложения с указанием их диаметра в мм.
Облачность - указаны через наклонную черту общая и нижняя облачность в баллах и высота нижней границы облаков в метрах; квадратными скобками обозначены формы облаков: Ci - перистые, Cs - перисто-слоистые, Cc - перисто-кучевые, Ac - высококучевые, As - высокослоистые, Sc - слоисто-кучевые, Ns - слоисто-дождевые, Cu - кучевые, Cb - кучево-дождевые. Подробнее классификацию облаков см. в Атласе облаков (PDF).
T - Температура воздуха - температура, измеренная на высоте 2 м над землей.
Td - Температура точки росы - температура, при понижении до которой содержащийся в воздухе водяной пар достигнет насыщения.
f - Относительная влажность воздуха - влажноcть воздуха, измеренная на высоте 2 м над землей.
Te - Эффективная температура - температура, которую ощущает одетый по сезону человек в тени. Характеристика душности погоды. При расчете учитывается влияние влажности воздуха и скорости ветра на теплоощущения человека.
Tes - Эффективная температура на солнце - температура, которую ощущает человек, с поправкой на солнечный нагрев. Характеристика знойности погоды. Зависит от высоты солнца над горизонтом, облачности и скорости ветра. Ночью, в пасмурную погоду, а также при ветре 12 м/с и более поправка равна нулю.
P - Атмосферное давление - приведенное к уровню моря атмосферное давление.
Po - Атмосферное давление - измеренное на уровне метеостанции атмосферное давление.
Tmin - Минимальная температура - минимум температуры воздуха на высоте 2 м над землей.
Tmax - Максимальная температура - максимум температуры воздуха на высоте 2 м над землей.
R - Количество осадков - Количество выпавших осадков за период времени, мм. При наведении курсора мыши на число - период времени, за который выпало указанное количество осадков.
R24 - Количество осадков - Количество выпавших осадков за 24 часа, мм.
S - Снежный покров - Высота снежного покрова, см. При наведении курсора мыши на число - состояние снежного покрова и степень покрытия местности в баллах.